M I D A S
Marine Information and Data Acquisition System
Tripno 1544 of the Zeeleeuw from 2008-08-26 08:33:58 to 2008-08-26 13:35:23
Back to CruiseResearch ActivitiesStationsMapUnderway DataData graphs

EquipmentUnitsComment
TimeDGPSUTC
LatitudeDGPSDM.mWGS84
LongitudeDGPSDM.mWGS84
TemperatureSBE03/SBE38deg celciusITS90
ConductivitySBE21S/mITS90
SalinitySBE21 Practical Salinity Units
ChlorophylAChelsea fluorimeterg/lCalibrated in Aceton
Missing or incorrect values are displayed as -999
Sea surface data collected by the RV Zeeleeuw from 2008-08-26 08:36:44 to 2008-08-26 13:38:50
Time Latitude Longitude Temperature Conductivity Salinity ChlorophylA
2008-08-26 08:37:49 51°13.638 2°55.989 20.7563 0.062892 0.333528 -1.279161
2008-08-26 08:38:49 51°13.665 2°55.887 20.7845 0.062892 0.333539 -1.279161
2008-08-26 08:39:49 51°13.686 2°55.793 20.7997 0.062892 0.333539 -1.279161
2008-08-26 08:40:47 51°13.691 2°55.738 20.8011 0.062892 0.333539 -1.279161
2008-08-26 08:41:45 51°13.696 2°55.731 20.817 0.062892 0.333551 -1.279161
2008-08-26 08:42:45 51°13.751 2°55.711 20.7392 0.062892 0.333551 -1.279161
2008-08-26 08:43:45 51°13.854 2°55.623 20.7603 0.062892 0.333567 -1.279161
2008-08-26 08:44:45 51°13.973 2°55.533 20.8096 0.062892 0.333579 -1.279161
2008-08-26 08:45:45 51°14.093 2°55.439 20.8168 0.062892 0.333584 -1.279161
2008-08-26 08:46:45 51°14.222 2°55.314 20.7684 0.062892 0.33359 -1.279161
2008-08-26 08:47:45 51°14.343 2°55.127 20.775 0.062892 0.33359 -1.279161
2008-08-26 08:48:45 51°14.473 2°54.936 20.7473 0.062892 0.33359 -1.279161
2008-08-26 08:49:45 51°14.586 2°54.732 20.7433 0.062892 0.333607 -1.279161
2008-08-26 08:50:45 51°14.644 2°54.486 20.7195 0.062892 0.333601 -1.279161
2008-08-26 08:51:45 51°14.71 2°54.22 20.721 0.062892 0.333613 -1.279161
2008-08-26 08:52:45 51°14.767 2°53.939 20.7078 0.062892 0.333613 -1.279161
2008-08-26 08:53:45 51°14.815 2°53.645 20.6847 0.062892 0.333624 -1.279161
2008-08-26 08:54:45 51°14.854 2°53.346 20.6923 0.062892 0.333635 -1.279161
2008-08-26 08:55:45 51°14.892 2°53.046 20.7081 0.062892 0.333641 -1.279161
2008-08-26 08:56:45 51°14.937 2°52.748 20.6996 0.062892 0.333664 -1.279161
2008-08-26 08:57:45 51°14.982 2°52.452 20.7245 0.062892 0.333669 -1.279161
2008-08-26 08:58:45 51°15.021 2°52.155 20.7053 0.062892 0.333675 -1.279161
2008-08-26 08:59:45 51°15.068 2°51.86 20.7131 0.062892 0.333692 -1.279161
2008-08-26 09:00:45 51°15.11 2°51.565 20.7418 0.062892 0.333692 -1.279161
2008-08-26 09:01:45 51°15.157 2°51.271 20.7403 0.062892 0.333703 -1.279161
2008-08-26 09:02:45 51°15.209 2°50.979 20.7378 0.062892 0.333715 -1.279161
2008-08-26 09:03:45 51°15.266 2°50.688 20.75 0.062892 0.333732 -1.279161
2008-08-26 09:04:45 51°15.326 2°50.399 20.7576 0.062892 0.333737 -1.279161
2008-08-26 09:05:45 51°15.387 2°50.109 20.7516 0.062789 0.333181 -1.279161
2008-08-26 09:06:45 51°15.446 2°49.818 20.7684 0.062892 0.333754 -1.279161
2008-08-26 09:07:45 51°15.505 2°49.529 20.7762 0.062789 0.333209 -1.279161
2008-08-26 09:08:45 51°15.564 2°49.241 20.7614 0.062789 0.333221 -1.279161
2008-08-26 09:09:45 51°15.622 2°48.952 20.7798 0.062789 0.333226 -1.279161
2008-08-26 09:10:45 51°15.679 2°48.661 20.7862 0.062789 0.333238 -1.279161
2008-08-26 09:11:45 51°15.728 2°48.366 20.7887 0.062789 0.333243 -1.279161
2008-08-26 09:12:45 51°15.783 2°48.076 20.8135 0.062789 0.33326 -1.279161
2008-08-26 09:13:45 51°15.843 2°47.789 20.8227 0.062789 0.333271 -1.279161
2008-08-26 09:14:45 51°15.905 2°47.503 20.8285 0.062789 0.333277 -1.279161
2008-08-26 09:15:45 51°15.967 2°47.217 20.8253 0.062789 0.333288 -1.279161
2008-08-26 09:16:45 51°16.029 2°46.932 20.8278 0.062789 0.333294 -1.279161
2008-08-26 09:17:45 51°16.083 2°46.643 20.8542 0.062789 0.333305 -1.313985
2008-08-26 09:18:45 51°16.143 2°46.356 20.8546 0.062789 0.333311 -1.279161
2008-08-26 09:19:45 51°16.208 2°46.071 20.8646 0.062789 0.333322 -1.279161
2008-08-26 09:20:45 51°16.269 2°45.781 20.8754 0.062789 0.333322 -1.279161
2008-08-26 09:21:45 51°16.333 2°45.493 20.8696 0.062789 0.333339 -1.279161
2008-08-26 09:22:45 51°16.417 2°45.217 20.8914 0.062789 0.333356 -1.279161
2008-08-26 09:23:45 51°16.52 2°44.95 20.8989 0.062789 0.333362 -1.279161
2008-08-26 09:24:45 51°16.62 2°44.682 20.895 0.062789 0.333368 -1.279161
2008-08-26 09:25:45 51°16.721 2°44.416 20.9019 0.062789 0.333373 -1.279161
2008-08-26 09:26:45 51°16.823 2°44.145 20.9084 0.062789 0.33339 -1.279161
2008-08-26 09:27:45 51°16.89 2°43.862 20.9334 0.062789 0.333396 -1.279161
2008-08-26 09:28:45 51°16.884 2°43.562 20.9396 0.062789 0.333407 -1.279161
2008-08-26 09:29:45 51°16.868 2°43.259 20.9361 0.062789 0.333419 -1.279161
2008-08-26 09:30:45 51°16.895 2°42.963 20.9577 0.062789 0.333441 -1.279161
2008-08-26 09:31:45 51°16.998 2°42.703 20.9535 0.062789 0.333447 -1.279161
2008-08-26 09:32:45 51°17.103 2°42.446 20.9908 0.062789 0.333475 -1.279161
2008-08-26 09:33:45 51°17.105 2°42.155 20.9874 0.062789 0.33347 -1.279161
2008-08-26 09:34:45 51°17.078 2°41.862 20.992 0.062789 0.333487 -1.279161
2008-08-26 09:35:45 51°17.074 2°41.567 21.0052 0.062789 0.333498 -1.279161
2008-08-26 09:36:45 51°17.157 2°41.294 21.0002 0.062789 0.333526 -1.244337
2008-08-26 09:37:45 51°17.289 2°41.061 21.0421 0.062789 0.333543 -1.279161
2008-08-26 09:38:45 51°17.425 2°40.83 21.0339 0.062789 0.333555 -1.313985
2008-08-26 09:39:45 51°17.564 2°40.601 21.0528 0.062789 0.333577 -1.313985
2008-08-26 09:40:45 51°17.698 2°40.37 21.0544 0.062789 0.333589 -1.313985
2008-08-26 09:41:45 51°17.833 2°40.139 21.0644 0.062789 0.333606 -1.313985
2008-08-26 09:42:45 51°17.973 2°39.914 21.0648 0.062789 0.333623 -1.313985
2008-08-26 09:43:45 51°18.116 2°39.697 21.082 0.062789 0.333645 -1.313985
2008-08-26 09:44:45 51°18.26 2°39.474 21.0894 0.062789 0.333668 -1.313985
2008-08-26 09:45:45 51°18.404 2°39.253 21.0926 0.062686 0.333111 -1.313985
2008-08-26 09:46:45 51°18.556 2°39.039 21.1103 0.062686 0.333128 -1.279161
2008-08-26 09:47:45 51°18.699 2°38.815 21.1159 0.062686 0.333145 -1.279161
2008-08-26 09:48:45 51°18.839 2°38.588 21.1245 0.062686 0.333168 -1.279161
2008-08-26 09:49:45 51°18.977 2°38.36 21.137 0.062686 0.333185 -1.279161
2008-08-26 09:50:45 51°19.116 2°38.133 21.1387 0.062686 0.33319 -1.279161
2008-08-26 09:51:45 51°19.269 2°37.924 21.1481 0.062686 0.333219 -1.279161
2008-08-26 09:52:45 51°19.419 2°37.713 21.1646 0.062686 0.333241 -1.279161
2008-08-26 09:53:45 51°19.562 2°37.494 21.1711 0.062686 0.333258 -1.279161
2008-08-26 09:54:45 51°19.715 2°37.287 21.1859 0.062686 0.333275 -1.244337
2008-08-26 09:55:45 51°19.853 2°37.103 21.2036 0.062686 0.333292 -1.244337
2008-08-26 09:56:45 51°19.929 2°37.008 21.2066 0.062686 0.333315 -1.279161
2008-08-26 09:57:45 51°19.985 2°36.936 21.223 0.062686 0.333326 -1.244337
2008-08-26 09:58:45 51°20.029 2°36.898 21.233 0.062686 0.333343 -1.244337
2008-08-26 09:59:45 51°20.062 2°36.891 21.2354 0.062686 0.33336 -1.244337
2008-08-26 10:00:45 51°20.085 2°36.901 21.2498 0.062686 0.333389 -1.244337
2008-08-26 10:01:45 51°20.104 2°36.921 21.2683 0.062686 0.333395 -1.244337
2008-08-26 10:02:45 51°20.121 2°36.948 21.2707 0.062686 0.333412 -1.279161
2008-08-26 10:03:45 51°20.136 2°36.978 21.2736 0.062686 0.333423 -1.244337
2008-08-26 10:04:45 51°20.15 2°37.008 21.2964 0.062686 0.333434 -1.279161
2008-08-26 10:05:45 51°20.205 2°37.067 21.2831 0.062686 0.333468 -1.279161
2008-08-26 10:06:45 51°20.175 2°37.19 21.2883 0.062686 0.333502 -1.244337
2008-08-26 10:07:45 51°20.108 2°37.124 21.3349 0.062686 0.333485 -1.244337
2008-08-26 10:08:45 51°20.046 2°37.032 21.3225 0.062686 0.333491 -1.279161
2008-08-26 10:09:45 51°19.997 2°36.948 21.3299 0.062686 0.333514 -1.279161
2008-08-26 10:10:45 51°19.99 2°36.894 21.3502 0.062686 0.333531 -1.279161
2008-08-26 10:11:45 51°20.009 2°36.881 21.3582 0.062583 0.332979 -1.279161
2008-08-26 10:12:45 51°20.036 2°36.876 21.3665 0.062583 0.332984 -1.279161
2008-08-26 10:13:45 51°20.057 2°36.883 21.3848 0.062583 0.333001 -1.279161
2008-08-26 10:14:45 51°20.077 2°36.896 21.3827 0.062583 0.333018 -1.279161
2008-08-26 10:15:45 51°20.098 2°36.908 21.3987 0.062583 0.33303 -1.244337
2008-08-26 10:16:45 51°20.118 2°36.924 21.4063 0.062583 0.333041 -1.279161
2008-08-26 10:17:45 51°20.134 2°36.944 21.4166 0.062583 0.333058 -1.279161
2008-08-26 10:18:45 51°20.149 2°36.969 21.4179 0.062583 0.333069 -1.244337
2008-08-26 10:19:45 51°20.164 2°36.997 21.439 0.062583 0.333081 -1.244337
2008-08-26 10:20:45 51°20.176 2°37.027 21.4494 0.062583 0.333098 -1.244337
2008-08-26 10:21:45 51°20.188 2°37.055 21.4469 0.062583 0.333109 -1.279161
2008-08-26 10:22:45 51°20.199 2°37.083 21.4579 0.062583 0.333121 -1.279161
2008-08-26 10:23:45 51°20.211 2°37.109 21.4767 0.062583 0.333138 -1.244337
2008-08-26 10:24:45 51°20.223 2°37.135 21.4805 0.062583 0.333149 -1.244337
2008-08-26 10:25:45 51°20.235 2°37.161 21.4971 0.062583 0.333172 -1.244337
2008-08-26 10:26:45 51°20.247 2°37.186 21.4972 0.062583 0.333177 -1.244337
2008-08-26 10:27:45 51°20.258 2°37.213 21.5071 0.062583 0.333206 -1.244337
2008-08-26 10:28:45 51°20.271 2°37.239 21.5228 0.062583 0.333228 -1.244337
2008-08-26 10:29:45 51°20.283 2°37.265 21.5305 0.062583 0.333246 -1.279161
2008-08-26 10:30:45 51°20.308 2°37.279 21.5485 0.062583 0.333274 -1.279161
2008-08-26 10:31:45 51°20.331 2°37.22 21.5488 0.062583 0.333297 -1.244337
2008-08-26 10:32:45 51°20.291 2°37.152 21.5554 0.062583 0.333285 -1.279161
2008-08-26 10:33:45 51°20.23 2°37.074 21.5663 0.062583 0.333314 -1.279161
2008-08-26 10:34:45 51°20.188 2°37.015 21.5733 0.062583 0.333342 -1.279161
2008-08-26 10:35:45 51°20.17 2°36.963 21.5818 0.062583 0.333371 -1.244337
2008-08-26 10:36:45 51°20.175 2°36.909 21.5968 0.062583 0.333393 -1.244337
2008-08-26 10:37:45 51°20.194 2°36.86 21.6066 0.062583 0.333416 -1.279161
2008-08-26 10:38:45 51°20.214 2°36.813 21.6158 0.062583 0.333433 -1.279161
2008-08-26 10:39:45 51°20.235 2°36.79 21.6223 0.062583 0.33345 -1.279161
2008-08-26 10:40:45 51°20.255 2°36.789 21.6269 0.062583 0.333467 -1.279161
2008-08-26 10:41:45 51°20.272 2°36.8 21.639 0.062583 0.33349 -1.279161
2008-08-26 10:42:45 51°20.289 2°36.816 21.6495 0.062481 0.332943 -1.244337
2008-08-26 10:43:45 51°20.303 2°36.839 21.6609 0.062583 0.33353 -1.244337
2008-08-26 10:44:45 51°20.316 2°36.863 21.6605 0.062481 0.332977 -1.279161
2008-08-26 10:45:45 51°20.328 2°36.886 21.6728 0.062481 0.332994 -1.244337
2008-08-26 10:46:45 51°20.339 2°36.909 21.6799 0.062481 0.333017 -1.279161
2008-08-26 10:47:45 51°20.35 2°36.932 21.6896 0.062481 0.333039 -1.279161
2008-08-26 10:48:45 51°20.362 2°36.954 21.6931 0.062481 0.333062 -1.244337
2008-08-26 10:49:45 51°20.372 2°36.975 21.7083 0.062481 0.333085 -1.244337
2008-08-26 10:50:45 51°20.382 2°36.997 21.707 0.062481 0.333108 -1.279161
2008-08-26 10:51:45 51°20.392 2°37.018 21.7233 0.062481 0.33313 -1.244337
2008-08-26 10:52:45 51°20.401 2°37.04 21.7303 0.062481 0.333159 -1.244337
2008-08-26 10:53:45 51°20.411 2°37.061 21.7422 0.062481 0.333182 -1.279161
2008-08-26 10:54:45 51°20.422 2°37.082 21.7492 0.062481 0.333204 -1.244337
2008-08-26 10:55:45 51°20.434 2°37.101 21.7523 0.062481 0.333227 -1.279161
2008-08-26 10:56:45 51°20.464 2°37.084 21.7668 0.062481 0.333256 -1.244337
2008-08-26 10:57:45 51°20.47 2°37.031 21.7785 0.062481 0.333284 -1.244337
2008-08-26 10:58:45 51°20.438 2°37.014 21.7795 0.062481 0.33329 -1.279161
2008-08-26 10:59:45 51°20.397 2°37.003 21.7897 0.062481 0.333313 -1.279161
2008-08-26 11:00:45 51°20.37 2°36.986 21.7984 0.062481 0.333341 -1.244337
2008-08-26 11:01:45 51°20.355 2°36.975 21.8059 0.062481 0.33337 -1.244337
2008-08-26 11:02:45 51°20.346 2°36.971 21.8093 0.062481 0.333381 -1.279161
2008-08-26 11:03:45 51°20.338 2°36.974 21.8183 0.062481 0.33341 -1.279161
2008-08-26 11:04:45 51°20.331 2°36.983 21.8224 0.062481 0.333432 -1.244337
2008-08-26 11:05:45 51°20.32 2°36.995 21.8405 0.062481 0.333455 -1.279161
2008-08-26 11:06:45 51°20.303 2°37.003 21.8542 0.062378 0.332918 -1.279161
2008-08-26 11:07:45 51°20.285 2°37.008 21.8598 0.062378 0.332947 -1.279161
2008-08-26 11:08:45 51°20.273 2°37.016 21.8672 0.062378 0.332964 -1.279161
2008-08-26 11:09:45 51°20.27 2°37.031 21.8645 0.062378 0.332992 -1.279161
2008-08-26 11:10:45 51°20.271 2°37.052 21.8795 0.062378 0.333015 -1.279161
2008-08-26 11:11:45 51°20.272 2°37.076 21.8841 0.062378 0.333044 -1.279161
2008-08-26 11:12:45 51°20.27 2°37.1 21.9027 0.062378 0.333061 -1.279161
2008-08-26 11:13:45 51°20.262 2°37.12 21.9107 0.062378 0.333089 -1.279161
2008-08-26 11:14:45 51°20.253 2°37.136 21.907 0.062378 0.333112 -1.244337
2008-08-26 11:15:45 51°20.243 2°37.15 21.9078 0.062378 0.333129 -1.279161
2008-08-26 11:16:45 51°20.229 2°37.161 21.9329 0.062378 0.333146 -1.244337
2008-08-26 11:17:45 51°20.215 2°37.167 21.931 0.062378 0.333164 -1.279161
2008-08-26 11:18:45 51°20.201 2°37.17 21.9381 0.062378 0.333186 -1.244337
2008-08-26 11:19:45 51°20.186 2°37.169 21.9493 0.062378 0.333203 -1.279161
2008-08-26 11:20:45 51°20.175 2°37.166 21.9499 0.062378 0.333226 -1.279161
2008-08-26 11:21:45 51°20.173 2°37.174 21.959 0.062378 0.333249 -1.244337
2008-08-26 11:22:45 51°20.175 2°37.191 21.9733 0.062378 0.333272 -1.279161
2008-08-26 11:23:45 51°20.181 2°37.21 21.987 0.062378 0.333295 -1.279161
2008-08-26 11:24:45 51°20.187 2°37.227 21.9934 0.062378 0.333312 -1.279161
2008-08-26 11:25:45 51°20.195 2°37.245 21.9997 0.062378 0.333335 -1.244337
2008-08-26 11:26:45 51°20.203 2°37.261 21.9958 0.062378 0.333358 -1.279161
2008-08-26 11:27:45 51°20.211 2°37.277 22.0171 0.062378 0.333375 -1.244337
2008-08-26 11:28:45 51°20.22 2°37.292 22.0307 0.062378 0.333398 -1.244337
2008-08-26 11:29:45 51°20.228 2°37.307 22.0291 0.062378 0.333409 -1.279161
2008-08-26 11:30:45 51°20.235 2°37.322 22.0301 0.062378 0.333421 -1.279161
2008-08-26 11:31:45 51°20.242 2°37.337 22.0404 0.062275 0.332871 -1.279161
2008-08-26 11:32:45 51°20.25 2°37.352 22.0545 0.062275 0.332889 -1.279161
2008-08-26 11:33:45 51°20.254 2°37.369 22.0411 0.062275 0.3329 -1.279161
2008-08-26 11:34:45 51°20.232 2°37.386 22.0623 0.062275 0.332917 -1.279161
2008-08-26 11:35:45 51°20.202 2°37.363 22.068 0.062275 0.332929 -1.244337
2008-08-26 11:36:45 51°20.183 2°37.301 22.0737 0.062275 0.332946 -1.279161
2008-08-26 11:37:45 51°20.174 2°37.244 22.081 0.062275 0.332969 -1.279161
2008-08-26 11:38:45 51°20.173 2°37.2 22.0963 0.062275 0.332991 -1.279161
2008-08-26 11:39:45 51°20.178 2°37.17 22.0995 0.062275 0.333009 -1.279161
2008-08-26 11:40:45 51°20.188 2°37.149 22.103 0.062275 0.333037 -1.279161
2008-08-26 11:41:45 51°20.199 2°37.139 22.1064 0.062275 0.333054 -1.244337
2008-08-26 11:42:45 51°20.211 2°37.144 22.1224 0.062275 0.333071 -1.279161
2008-08-26 11:43:45 51°20.221 2°37.156 22.126 0.062275 0.333089 -1.244337
2008-08-26 11:44:45 51°20.231 2°37.171 22.1353 0.062275 0.333106 -1.279161
2008-08-26 11:45:45 51°20.239 2°37.185 22.133 0.062275 0.333123 -1.279161
2008-08-26 11:46:45 51°20.246 2°37.2 22.1503 0.062275 0.33314 -1.244337
2008-08-26 11:47:45 51°20.251 2°37.215 22.1514 0.062275 0.333157 -1.244337
2008-08-26 11:48:45 51°20.257 2°37.23 22.1447 0.062275 0.33318 -1.279161
2008-08-26 11:49:45 51°20.264 2°37.243 22.1646 0.062275 0.333203 -1.244337
2008-08-26 11:50:45 51°20.271 2°37.256 22.175 0.062275 0.333226 -1.244337
2008-08-26 11:51:45 51°20.278 2°37.268 22.1778 0.062275 0.333243 -1.244337
2008-08-26 11:52:45 51°20.284 2°37.28 22.1858 0.062275 0.333266 -1.279161
2008-08-26 11:53:45 51°20.293 2°37.291 22.1906 0.062275 0.333289 -1.279161
2008-08-26 11:54:45 51°20.316 2°37.275 22.1925 0.062275 0.333317 -1.244337
2008-08-26 11:55:45 51°20.33 2°37.229 22.1983 0.062275 0.333334 -1.244337
2008-08-26 11:56:45 51°20.316 2°37.181 22.2042 0.062275 0.333346 -1.244337
2008-08-26 11:57:45 51°20.288 2°37.132 22.2013 0.062275 0.333363 -1.244337
2008-08-26 11:58:45 51°20.274 2°37.094 22.2244 0.062275 0.333392 -1.244337
2008-08-26 11:59:45 51°20.269 2°37.069 22.1856 0.062275 0.333415 -1.244337
2008-08-26 12:00:45 51°20.267 2°37.044 22.1883 0.062275 0.333426 -1.279161
2008-08-26 12:01:45 51°20.289 2°37.002 22.2009 0.062275 0.333466 -1.244337
2008-08-26 12:02:45 51°20.322 2°36.964 22.2025 0.062275 0.333472 -1.244337
2008-08-26 12:03:45 51°20.353 2°36.919 22.2084 0.062172 0.332922 -1.244337
2008-08-26 12:04:45 51°20.382 2°36.877 22.2182 0.062172 0.332945 -1.244337
2008-08-26 12:05:45 51°20.403 2°36.851 22.2332 0.062172 0.332962 -1.244337
2008-08-26 12:06:45 51°20.418 2°36.841 22.2409 0.062172 0.332985 -1.244337
2008-08-26 12:07:45 51°20.431 2°36.841 22.2515 0.062172 0.333008 -1.244337
2008-08-26 12:08:45 51°20.443 2°36.843 22.2633 0.062172 0.333025 -1.244337
2008-08-26 12:09:45 51°20.454 2°36.85 22.2766 0.062172 0.333042 -1.244337
2008-08-26 12:10:45 51°20.462 2°36.859 22.2791 0.062172 0.333059 -1.244337
2008-08-26 12:11:45 51°20.469 2°36.873 22.2879 0.062172 0.333076 -1.279161
2008-08-26 12:12:46 51°20.484 2°36.881 22.3054 0.062172 0.333094 -1.244337
2008-08-26 12:13:46 51°20.526 2°36.917 22.3153 0.062172 0.333117 -1.244337
2008-08-26 12:14:46 51°20.525 2°37.002 22.3359 0.062172 0.333145 -1.279161
2008-08-26 12:15:46 51°20.482 2°37.097 22.3564 0.062172 0.333151 -1.244337
2008-08-26 12:16:46 51°20.432 2°37.22 22.3793 0.062172 0.333168 -1.244337
2008-08-26 12:17:46 51°20.373 2°37.356 22.3992 0.062172 0.333191 -1.244337
2008-08-26 12:18:46 51°20.3 2°37.504 22.4341 0.062172 0.333197 -1.139864
2008-08-26 12:19:46 51°20.227 2°37.656 22.4326 0.062172 0.333214 -1.139864
2008-08-26 12:20:46 51°20.151 2°37.808 22.4318 0.062172 0.333225 -1.139864
2008-08-26 12:21:46 51°20.075 2°37.959 22.4368 0.062172 0.333237 -1.139864
2008-08-26 12:22:46 51°19.99 2°38.128 22.4397 0.062172 0.333248 -1.139864
2008-08-26 12:23:46 51°19.893 2°38.32 22.445 0.062172 0.333254 -1.139864
2008-08-26 12:24:46 51°19.795 2°38.515 22.4503 0.062172 0.333266 -1.174688
2008-08-26 12:25:46 51°19.694 2°38.709 22.4533 0.062172 0.333283 -1.174688
2008-08-26 12:26:46 51°19.593 2°38.905 22.4634 0.062172 0.333294 -1.139864
2008-08-26 12:27:46 51°19.492 2°39.101 22.4638 0.062172 0.333312 -1.139864
2008-08-26 12:28:46 51°19.393 2°39.299 22.4672 0.062172 0.333323 -1.139864
2008-08-26 12:29:46 51°19.296 2°39.499 22.474 0.062172 0.33334 -1.139864
2008-08-26 12:30:46 51°19.199 2°39.697 22.4773 0.062172 0.333357 -1.174688
2008-08-26 12:31:46 51°19.103 2°39.895 22.4833 0.062172 0.333369 -1.139864
2008-08-26 12:32:46 51°19.002 2°40.094 22.4895 0.062172 0.333375 -1.139864
2008-08-26 12:33:46 51°18.898 2°40.296 22.4903 0.062172 0.333375 -1.174688
2008-08-26 12:34:46 51°18.793 2°40.497 22.4955 0.062172 0.33338 -1.174688
2008-08-26 12:35:46 51°18.689 2°40.696 22.4976 0.062172 0.333369 -1.174688
2008-08-26 12:36:46 51°18.585 2°40.895 22.5069 0.062172 0.333363 -1.139864
2008-08-26 12:37:46 51°18.48 2°41.09 22.5091 0.062172 0.333352 -1.174688
2008-08-26 12:38:46 51°18.376 2°41.29 22.5132 0.062172 0.333334 -1.139864
2008-08-26 12:39:46 51°18.27 2°41.49 22.5179 0.062172 0.333323 -1.174688
2008-08-26 12:40:46 51°18.164 2°41.691 22.5229 0.062172 0.3333 -1.174688
2008-08-26 12:41:46 51°18.057 2°41.894 22.5262 0.062172 0.333271 -1.174688
2008-08-26 12:42:46 51°17.95 2°42.096 22.53 0.062172 0.333254 -1.174688
2008-08-26 12:43:46 51°17.845 2°42.299 22.5347 0.062172 0.333231 -1.174688
2008-08-26 12:44:46 51°17.738 2°42.499 22.5384 0.062172 0.333203 -1.174688
2008-08-26 12:45:46 51°17.632 2°42.699 22.5415 0.062172 0.33318 -1.174688
2008-08-26 12:46:46 51°17.527 2°42.897 22.5476 0.062172 0.333151 -1.139864
2008-08-26 12:47:46 51°17.425 2°43.091 22.55 0.062172 0.333122 -1.174688
2008-08-26 12:48:46 51°17.327 2°43.291 22.5536 0.062172 0.333105 -1.174688
2008-08-26 12:49:46 51°17.25 2°43.515 22.5582 0.062172 0.333088 -1.139864
2008-08-26 12:50:46 51°17.171 2°43.742 22.5616 0.062172 0.333065 -1.139864
2008-08-26 12:51:46 51°17.094 2°43.971 22.5661 0.062172 0.333042 -1.174688
2008-08-26 12:52:46 51°17.013 2°44.199 22.5702 0.062275 0.333587 -1.174688
2008-08-26 12:53:46 51°16.936 2°44.431 22.5745 0.062275 0.333552 -1.139864
2008-08-26 12:54:46 51°16.858 2°44.661 22.5757 0.062275 0.333512 -1.139864
2008-08-26 12:55:46 51°16.781 2°44.892 22.5805 0.062275 0.333466 -1.174688
2008-08-26 12:56:46 51°16.701 2°45.128 22.5845 0.062275 0.333426 -1.139864
2008-08-26 12:57:46 51°16.619 2°45.365 22.5892 0.062275 0.333375 -1.174688
2008-08-26 12:58:46 51°16.537 2°45.604 22.5916 0.062275 0.333323 -1.139864
2008-08-26 12:59:46 51°16.467 2°45.854 22.5961 0.062275 0.333266 -1.174688
2008-08-26 13:00:46 51°16.395 2°46.099 22.6009 0.062275 0.33322 -1.174688
2008-08-26 13:01:46 51°16.323 2°46.34 22.6056 0.062275 0.33318 -1.174688
2008-08-26 13:02:46 51°16.252 2°46.583 22.6097 0.062275 0.333146 -1.139864
2008-08-26 13:03:46 51°16.181 2°46.828 22.614 0.062275 0.333117 -1.174688
2008-08-26 13:04:46 51°16.11 2°47.07 22.6174 0.062378 0.333649 -1.139864
2008-08-26 13:05:46 51°16.042 2°47.315 22.6211 0.062378 0.333632 -1.139864
2008-08-26 13:06:46 51°15.975 2°47.56 22.6258 0.062378 0.333604 -1.139864
2008-08-26 13:07:46 51°15.908 2°47.804 22.6303 0.062378 0.333586 -1.174688
2008-08-26 13:08:46 51°15.84 2°48.051 22.6344 0.062378 0.333575 -1.174688
2008-08-26 13:09:46 51°15.773 2°48.299 22.637 0.062378 0.333541 -1.139864
2008-08-26 13:10:46 51°15.707 2°48.546 22.6429 0.062378 0.333523 -1.174688
2008-08-26 13:11:46 51°15.638 2°48.789 22.6489 0.062378 0.333506 -1.174688
2008-08-26 13:12:46 51°15.575 2°49.037 22.6513 0.062378 0.333495 -1.174688
2008-08-26 13:13:46 51°15.513 2°49.287 22.6557 0.062378 0.333478 -1.139864
2008-08-26 13:14:46 51°15.452 2°49.536 22.6598 0.062378 0.333461 -1.174688
2008-08-26 13:15:46 51°15.39 2°49.786 22.6656 0.062378 0.333443 -1.139864
2008-08-26 13:16:46 51°15.328 2°50.034 22.6685 0.062378 0.333426 -1.174688
2008-08-26 13:17:46 51°15.267 2°50.283 22.6738 0.062378 0.333415 -1.139864
2008-08-26 13:18:46 51°15.206 2°50.531 22.6784 0.062378 0.333392 -1.174688
2008-08-26 13:19:46 51°15.149 2°50.783 22.6834 0.062378 0.333381 -1.174688
2008-08-26 13:20:46 51°15.092 2°51.038 22.688 0.062378 0.333363 -1.174688
2008-08-26 13:21:46 51°15.033 2°51.297 22.6953 0.062378 0.333352 -1.174688
2008-08-26 13:22:46 51°14.975 2°51.557 22.6933 0.062378 0.333346 -1.174688
2008-08-26 13:23:46 51°14.915 2°51.805 22.7003 0.062378 0.333329 -1.174688
2008-08-26 13:24:46 51°14.866 2°52.056 22.7003 0.062481 0.333884 -1.174688
2008-08-26 13:25:46 51°14.83 2°52.312 22.7125 0.062481 0.333872 -1.174688
2008-08-26 13:26:46 51°14.791 2°52.569 22.7105 0.062481 0.333861 -1.174688
2008-08-26 13:27:46 51°14.752 2°52.836 22.7119 0.062481 0.333855 -1.174688
2008-08-26 13:28:46 51°14.711 2°53.128 22.716 0.062481 0.333844 -1.139864
2008-08-26 13:29:46 51°14.672 2°53.422 22.7176 0.062481 0.333832 -1.139864
2008-08-26 13:30:46 51°14.626 2°53.718 22.7227 0.062481 0.333809 -1.139864
2008-08-26 13:31:46 51°14.593 2°54.023 22.7326 0.062481 0.333786 -1.139864
2008-08-26 13:32:46 51°14.565 2°54.328 22.741 0.062481 0.333758 -1.174688
2008-08-26 13:33:46 51°14.511 2°54.621 22.739 0.062481 0.333729 -1.174688
2008-08-26 13:34:46 51°14.424 2°54.894 22.7444 0.062481 0.333684 -1.174688
2008-08-26 13:35:46 51°14.315 2°55.154 22.7453 0.062481 0.333649 -1.174688
2008-08-26 13:36:50 51°14.169 2°55.371 22.7589 0.062481 0.333604 -1.174688
2008-08-26 13:37:50 51°14.037 2°55.484 22.7707 0.062481 0.333564 -1.139864